^^
Station Historical Data
 
Daily Summary for July 20, 2017 Units:  Metric    English   Both
« Previous Day
Next Day »
Daily Weekly Monthly Yearly Custom
  Current: High: Low: Average:
Temperature: 25.9 °C 27.4 °C 16.5 °C 21.5 °C
Dew Point: 19.8 °C 23 °C 15.8 °C 18.9 °C
Humidity: 69 % 100 % 66 % 86 %
Wind Speed: 3.2 km/h 4.8 km/h 0 km/h 0.2 km/h
Wind Gust: 11.3 km/h 20.9 km/h - -
Wind:NW - - WNW
Pressure: 1008 hPa 1013.1 hPa 1008 hPa -
Precipitation: 0 mm      
Historical Graphs
 
 
Tabular Data for July 20, 2017
Time Temperature Dew Point Pressure Wind Wind Speed Wind Gust Humidity Rainfall Rate (Hourly) solar Conditions
00:02 18.9 °C 17.4 °C 1012.4 hPa Calm     91 % 0 mm WeatherDisplay:10.37 W/m2 FEW
00:07 18.8 °C 17.3 °C 1012.8 hPa Calm     91 % 0 mm WeatherDisplay:10.37 W/m2 FEW
00:12 18.7 °C 17.2 °C 1012.8 hPa Calm     91 % 0 mm WeatherDisplay:10.37 W/m2 FEW
00:17 18.7 °C 17.2 °C 1012.8 hPa Calm     91 % 0 mm WeatherDisplay:10.37 W/m2 FEW
00:22 18.6 °C 17.1 °C 1013.1 hPa Calm     91 % 0 mm WeatherDisplay:10.37 W/m2 FEW
00:27 18.5 °C 17 °C 1012.8 hPa Calm     91 % 0 mm WeatherDisplay:10.37 W/m2 FEW
00:32 18.4 °C 16.9 °C 1012.8 hPa Calm     91 % 0 mm WeatherDisplay:10.37 W/m2 FEW
00:37 18.4 °C 16.9 °C 1012.8 hPa Calm     91 % 0 mm WeatherDisplay:10.37 W/m2 FEW
00:42 18.3 °C 17 °C 1012.8 hPa Calm     92 % 0 mm WeatherDisplay:10.37 W/m2 FEW
00:47 18.3 °C 16.9 °C 1012.8 hPa Calm     92 % 0 mm WeatherDisplay:10.37 W/m2 FEW
00:52 18.3 °C 16.9 °C 1012.8 hPa Calm     92 % 0 mm WeatherDisplay:10.37 W/m2 FEW
00:57 18.2 °C 17.1 °C 1012.8 hPa Calm     93 % 0 mm WeatherDisplay:10.37 W/m2 FEW
01:02 18.2 °C 17 °C 1012.8 hPa Calm     93 % 0 mm WeatherDisplay:10.37 W/m2 FEW
01:07 18.1 °C 16.9 °C 1012.8 hPa Calm     93 % 0 mm WeatherDisplay:10.37 W/m2 FEW
01:12 18 °C 16.8 °C 1012.8 hPa Calm     93 % 0 mm WeatherDisplay:10.37 W/m2 FEW
01:17 18 °C 16.8 °C 1012.4 hPa Calm     93 % 0 mm WeatherDisplay:10.37 W/m2 FEW
01:22 17.9 °C 16.7 °C 1012.8 hPa Calm     93 % 0 mm WeatherDisplay:10.37 W/m2 FEW
01:27 17.8 °C 16.7 °C 1012.8 hPa Calm     93 % 0 mm WeatherDisplay:10.37 W/m2 FEW
01:32 17.8 °C 16.6 °C 1012.4 hPa Calm     93 % 0 mm WeatherDisplay:10.37 W/m2 FEW
01:42 17.7 °C 16.6 °C 1012.4 hPa Calm     93 % 0 mm WeatherDisplay:10.37 W/m2 FEW
01:47 17.7 °C 16.7 °C 1012.4 hPa Calm     94 % 0 mm WeatherDisplay:10.37 W/m2 FEW
01:52 17.7 °C 16.7 °C 1012.4 hPa Calm     94 % 0 mm WeatherDisplay:10.37 W/m2 FEW
01:58 17.7 °C 16.7 °C 1012.4 hPa Calm     94 % 0 mm WeatherDisplay:10.37 W/m2 FEW
02:07 17.7 °C 16.7 °C 1012.1 hPa Calm     94 % 0 mm WeatherDisplay:10.37 W/m2 FEW
02:12 17.6 °C 16.6 °C 1012.1 hPa Calm     94 % 0 mm WeatherDisplay:10.37 W/m2 FEW
02:17 17.6 °C 16.6 °C 1012.1 hPa Calm     94 % 0 mm WeatherDisplay:10.37 W/m2 FEW
02:22 17.6 °C 16.6 °C 1012.1 hPa Calm     94 % 0 mm WeatherDisplay:10.37 W/m2 FEW
02:32 17.5 °C 16.5 °C 1012.4 hPa Calm     94 % 0 mm WeatherDisplay:10.37 W/m2 FEW
02:37 17.4 °C 16.4 °C 1012.4 hPa Calm     94 % 0 mm WeatherDisplay:10.37 W/m2 FEW
02:42 17.4 °C 16.4 °C 1012.1 hPa Calm     94 % 0 mm WeatherDisplay:10.37 W/m2 FEW
02:47 17.3 °C 16.3 °C 1012.4 hPa Calm     94 % 0 mm WeatherDisplay:10.37 W/m2 FEW
02:52 17.3 °C 16.3 °C 1012.4 hPa Calm     94 % 0 mm WeatherDisplay:10.37 W/m2 FEW
02:57 17.2 °C 16.2 °C 1012.4 hPa Calm     94 % 0 mm WeatherDisplay:10.37 W/m2 FEW
03:02 17.2 °C 16.2 °C 1012.1 hPa Calm     94 % 0 mm WeatherDisplay:10.37 W/m2 FEW
03:07 17.1 °C 16.1 °C 1012.4 hPa Calm     94 % 0 mm WeatherDisplay:10.37 W/m2 FEW
03:12 17.1 °C 16.1 °C 1012.4 hPa Calm     94 % 0 mm WeatherDisplay:10.37 W/m2 FEW
03:17 17 °C 16 °C 1012.4 hPa Calm     94 % 0 mm WeatherDisplay:10.37 W/m2 FEW
03:22 16.9 °C 16 °C 1012.4 hPa Calm     94 % 0 mm WeatherDisplay:10.37 W/m2 FEW
03:27 16.9 °C 15.9 °C 1012.4 hPa Calm     94 % 0 mm WeatherDisplay:10.37 W/m2 FEW
03:32 16.8 °C 15.9 °C 1012.4 hPa Calm     94 % 0 mm WeatherDisplay:10.37 W/m2 FEW
03:37 16.8 °C 15.8 °C 1012.4 hPa Calm     94 % 0 mm WeatherDisplay:10.37 W/m2 FEW
03:42 16.8 °C 15.8 °C 1012.4 hPa Calm     94 % 0 mm WeatherDisplay:10.37 W/m2 FEW
03:47 16.8 °C 15.8 °C 1012.4 hPa Calm     94 % 0 mm WeatherDisplay:10.37 W/m2 FEW
03:52 16.7 °C 15.8 °C 1012.4 hPa Calm     94 % 0 mm WeatherDisplay:10.37 W/m2 FEW
03:57 16.7 °C 15.9 °C 1012.1 hPa Calm     95 % 0 mm WeatherDisplay:10.37 W/m2 FEW
04:02 16.7 °C 15.9 °C 1012.1 hPa Calm     95 % 0 mm WeatherDisplay:10.37 W/m2 FEW
04:07 16.7 °C 15.9 °C 1012.1 hPa Calm     95 % 0 mm WeatherDisplay:10.37 W/m2 FEW
04:12 16.7 °C 15.9 °C 1012.1 hPa Calm   1.6 km/h 95 % 0 mm WeatherDisplay:10.37 W/m2 FEW
04:17 16.8 °C 16 °C 1012.1 hPa Calm   1.6 km/h 95 % 0 mm WeatherDisplay:10.37 W/m2 FEW
04:22 16.8 °C 16 °C 1012.1 hPa Calm     95 % 0 mm WeatherDisplay:10.37 W/m2 FEW
04:27 16.8 °C 16 °C 1012.1 hPa Calm     95 % 0 mm WeatherDisplay:10.37 W/m2 FEW
04:32 16.8 °C 16 °C 1012.1 hPa Calm     95 % 0 mm WeatherDisplay:10.37 W/m2 FEW
04:37 16.8 °C 16 °C 1012.1 hPa Calm     95 % 0 mm WeatherDisplay:10.37 W/m2 FEW
04:42 16.7 °C 15.9 °C 1012.1 hPa Calm     95 % 0 mm WeatherDisplay:10.37 W/m2 FEW
04:47 16.7 °C 15.9 °C 1012.1 hPa Calm     95 % 0 mm WeatherDisplay:10.37 W/m2 FEW
04:52 16.7 °C 15.9 °C 1012.1 hPa Calm     95 % 0 mm WeatherDisplay:10.37 W/m2 FEW
04:57 16.7 °C 15.9 °C 1011.7 hPa Calm     95 % 0 mm WeatherDisplay:10.37 W/m2 FEW
05:02 16.7 °C 15.9 °C 1011.7 hPa Calm     95 % 0 mm WeatherDisplay:10.37 W/m2 FEW
05:07 16.7 °C 15.9 °C 1011.4 hPa Calm     95 % 0 mm WeatherDisplay:10.37 W/m2 FEW
05:12 16.7 °C 15.9 °C 1011.4 hPa Calm     95 % 0 mm WeatherDisplay:10.37 W/m2 SCT
05:17 16.7 °C 15.9 °C 1011.4 hPa Calm     95 % 0 mm WeatherDisplay:10.37 W/m2 SCT
05:22 16.7 °C 15.9 °C 1011.4 hPa Calm     95 % 0 mm WeatherDisplay:10.37 W/m2 SCT
05:27 16.7 °C 15.8 °C 1011.4 hPa Calm     95 % 0 mm WeatherDisplay:10.37 W/m2 SCT
05:32 16.6 °C 15.8 °C 1011.7 hPa Calm     95 % 0 mm WeatherDisplay:10.37 W/m2 SCT
05:37 16.6 °C 15.8 °C 1011.7 hPa Calm     95 % 0 mm WeatherDisplay:10.37 W/m2 SCT
05:42 16.6 °C 15.8 °C 1011.7 hPa Calm     95 % 0 mm WeatherDisplay:10.37 W/m2 SCT
05:47 16.6 °C 15.9 °C 1012.1 hPa Calm     96 % 0 mm WeatherDisplay:10.37 W/m2 SCT
05:52 16.5 °C 15.9 °C 1012.1 hPa Calm     96 % 0 mm WeatherDisplay:10.37 W/m2 SCT
05:57 16.5 °C 15.8 °C 1012.1 hPa Calm     96 % 0 mm WeatherDisplay:10.37 W/m2 SCT
06:02 16.5 °C 15.8 °C 1012.1 hPa Calm     96 % 0 mm WeatherDisplay:10.37 W/m2 SCT
06:07 16.5 °C 15.8 °C 1012.1 hPa Calm     96 % 0 mm WeatherDisplay:10.37 W/m2 SCT
06:12 16.5 °C 15.8 °C 1012.1 hPa Calm     96 % 0 mm WeatherDisplay:10.37 W/m2 BKN
06:17 16.5 °C 15.8 °C 1012.4 hPa Calm     96 % 0 mm WeatherDisplay:10.37 W/m2 BKN
06:25 16.5 °C 15.8 °C 1012.1 hPa Calm     96 % 0 mm WeatherDisplay:10.37 W/m2 BKN
06:30 16.6 °C 15.9 °C 1012.1 hPa Calm     96 % 0 mm WeatherDisplay:10.37 W/m2 BKN
06:35 16.6 °C 15.9 °C 1012.1 hPa Calm     96 % 0 mm WeatherDisplay:10.37 W/m2 BKN
06:40 16.6 °C 15.9 °C 1012.1 hPa Calm     96 % 0 mm WeatherDisplay:10.37 W/m2 BKN
06:45 16.7 °C 16.1 °C 1012.1 hPa Calm     96 % 0 mm WeatherDisplay:10.37 W/m2 BKN
06:50 16.8 °C 16.1 °C 1012.1 hPa Calm     96 % 0 mm WeatherDisplay:10.37 W/m2 BKN
06:55 16.9 °C 16.2 °C 1012.1 hPa Calm     96 % 0 mm WeatherDisplay:10.37 W/m2 BKN
07:00 17 °C 17 °C 1012.1 hPa Calm     100 % 0 mm WeatherDisplay:10.37 W/m2 BKN
07:05 17.1 °C 16.4 °C 1012.1 hPa Calm     96 % 0 mm WeatherDisplay:10.37 W/m2 BKN
07:10 17.2 °C 17.1 °C 1012.1 hPa Calm     99 % 0 mm WeatherDisplay:10.37 W/m2 BKN
07:15 17.3 °C 17.3 °C 1012.1 hPa Calm     100 % 0 mm WeatherDisplay:10.37 W/m2 BKN
07:20 17.5 °C 17.5 °C 1012.1 hPa Calm     100 % 0 mm WeatherDisplay:10.37 W/m2 BKN
07:25 17.7 °C 17.7 °C 1012.1 hPa Calm     100 % 0 mm WeatherDisplay:10.37 W/m2 BKN
07:30 17.9 °C 17.9 °C 1012.1 hPa Calm     100 % 0 mm WeatherDisplay:10.37 W/m2 BKN
07:35 18.1 °C 18.1 °C 1012.1 hPa Calm     100 % 0 mm WeatherDisplay:10.37 W/m2 BKN
07:40 18.3 °C 18.3 °C 1012.1 hPa Calm     100 % 0 mm WeatherDisplay:10.37 W/m2 BKN
07:45 18.7 °C 18.7 °C 1012.1 hPa Calm     100 % 0 mm WeatherDisplay:10.37 W/m2 BKN
07:50 18.8 °C 18.8 °C 1012.1 hPa Calm     100 % 0 mm WeatherDisplay:10.37 W/m2 BKN
08:00 19.2 °C 19.2 °C 1012.1 hPa Calm     100 % 0 mm WeatherDisplay:10.37 W/m2 BKN
08:05 19.3 °C 19.3 °C 1012.1 hPa Calm     100 % 0 mm WeatherDisplay:10.37 W/m2 BKN
08:10 19.4 °C 19.4 °C 1012.4 hPa Calm     100 % 0 mm WeatherDisplay:10.37 W/m2 BKN
08:15 19.7 °C 19.7 °C 1012.4 hPa Calm     100 % 0 mm WeatherDisplay:10.37 W/m2 BKN
08:20 19.9 °C 19.9 °C 1012.1 hPa Calm     100 % 0 mm WeatherDisplay:10.37 W/m2 BKN
08:25 20.1 °C 20.1 °C 1012.4 hPa Calm     100 % 0 mm WeatherDisplay:10.37 W/m2 BKN
08:30 20.3 °C 20.3 °C 1012.1 hPa Calm     100 % 0 mm WeatherDisplay:10.37 W/m2 BKN
08:35 20.4 °C 20.4 °C 1012.4 hPa Calm     100 % 0 mm WeatherDisplay:10.37 W/m2 BKN
08:40 20.6 °C 20.6 °C 1012.1 hPa Calm     100 % 0 mm WeatherDisplay:10.37 W/m2 BKN
08:45 20.8 °C 20.8 °C 1012.1 hPa Calm     100 % 0 mm WeatherDisplay:10.37 W/m2 BKN
08:50 20.9 °C 20.9 °C 1012.1 hPa Calm     100 % 0 mm WeatherDisplay:10.37 W/m2 BKN
08:55 21.2 °C 21.2 °C 1012.1 hPa Calm     100 % 0 mm WeatherDisplay:10.37 W/m2 BKN
09:00 21.2 °C 21.2 °C 1012.1 hPa Calm     100 % 0 mm WeatherDisplay:10.37 W/m2 BKN
09:05 21.5 °C 21.5 °C 1012.1 hPa Calm     100 % 0 mm WeatherDisplay:10.37 W/m2 BKN
09:10 21.7 °C 21.7 °C 1012.1 hPa Calm     100 % 0 mm WeatherDisplay:10.37 W/m2 BKN
09:15 21.9 °C 21.9 °C 1012.1 hPa Calm     100 % 0 mm WeatherDisplay:10.37 W/m2 BKN
09:20 22.1 °C 22.1 °C 1012.1 hPa Calm   3.2 km/h 100 % 0 mm WeatherDisplay:10.37 W/m2 BKN
09:30 22.3 °C 22.3 °C 1012.1 hPa Calm     100 % 0 mm WeatherDisplay:10.37 W/m2 BKN
09:35 22.4 °C 22.4 °C 1012.1 hPa Calm     100 % 0 mm WeatherDisplay:10.37 W/m2 BKN
09:40 22.6 °C 21.9 °C 1012.4 hPa Calm   3.2 km/h 96 % 0 mm WeatherDisplay:10.37 W/m2 BKN
09:45 22.7 °C 21.9 °C 1012.1 hPa Calm   1.6 km/h 95 % 0 mm WeatherDisplay:10.37 W/m2 BKN
09:50 22.8 °C 21.8 °C 1012.1 hPa Calm     94 % 0 mm WeatherDisplay:10.37 W/m2 BKN
09:55 23 °C 21.8 °C 1012.1 hPa Calm     93 % 0 mm WeatherDisplay:10.37 W/m2 BKN
10:00 23.2 °C 21.5 °C 1012.1 hPa Calm     90 % 0 mm WeatherDisplay:10.37 W/m2 BKN
10:05 23.4 °C 21.7 °C 1012.1 hPa Calm     90 % 0 mm WeatherDisplay:10.37 W/m2 BKN
10:10 23.8 °C 21.8 °C 1011.7 hPa Calm   3.2 km/h 89 % 0 mm WeatherDisplay:10.37 W/m2 BKN
10:15 24.1 °C 21.8 °C 1011.7 hPa Calm   6.4 km/h 87 % 0 mm WeatherDisplay:10.37 W/m2 SCT
10:20 24.4 °C 21.9 °C 1011.7 hPa Calm   3.2 km/h 86 % 0 mm WeatherDisplay:10.37 W/m2 SCT
10:25 24.8 °C 22.1 °C 1011.7 hPa Calm   3.2 km/h 85 % 0 mm WeatherDisplay:10.37 W/m2 SCT
10:30 25.2 °C 22.3 °C 1011.7 hPa Calm   3.2 km/h 84 % 0 mm WeatherDisplay:10.37 W/m2 SCT
10:35 25.5 °C 22.2 °C 1011.7 hPa Calm   8 km/h 82 % 0 mm WeatherDisplay:10.37 W/m2 SCT
10:40 25.8 °C 22.1 °C 1011.7 hPa Calm   1.6 km/h 80 % 0 mm WeatherDisplay:10.37 W/m2 SCT
10:45 26 °C 21.9 °C 1011.7 hPa NW 1.6 km/h 8 km/h 78 % 0 mm WeatherDisplay:10.37 W/m2 SCT
10:50 26.2 °C 22.3 °C 1011.7 hPa Calm   3.2 km/h 79 % 0 mm WeatherDisplay:10.37 W/m2 SCT
10:55 26.5 °C 22.6 °C 1011.7 hPa Calm   1.6 km/h 79 % 0 mm WeatherDisplay:10.37 W/m2 SCT
11:00 26.7 °C 22.7 °C 1011.7 hPa Calm   4.8 km/h 79 % 0 mm WeatherDisplay:10.37 W/m2 SCT
11:05 26.8 °C 22.4 °C 1011.4 hPa Calm   3.2 km/h 77 % 0 mm WeatherDisplay:10.37 W/m2 SCT
11:10 27 °C 22.4 °C 1011.4 hPa Calm   1.6 km/h 76 % 0 mm WeatherDisplay:10.37 W/m2 SCT
11:15 27.2 °C 22.4 °C 1011.4 hPa Calm     75 % 0 mm WeatherDisplay:10.37 W/m2 BKN
11:20 27.4 °C 23 °C 1011.1 hPa Calm     77 % 0 mm WeatherDisplay:10.37 W/m2 BKN
11:25 27.4 °C 22.3 °C 1011.1 hPa Calm   3.2 km/h 74 % 0 mm WeatherDisplay:10.37 W/m2 BKN
11:30 27.4 °C 22.6 °C 1011.1 hPa Calm   1.6 km/h 75 % 0 mm WeatherDisplay:10.37 W/m2 BKN
11:35 27.3 °C 22.2 °C 1011.1 hPa Calm   3.2 km/h 74 % 0 mm WeatherDisplay:10.37 W/m2 BKN
11:40 27.2 °C 22.2 °C 1010.7 hPa Calm   1.6 km/h 74 % 0 mm WeatherDisplay:10.37 W/m2 BKN
11:45 27.1 °C 22 °C 1010.7 hPa NW 1.6 km/h 4.8 km/h 74 % 0 mm WeatherDisplay:10.37 W/m2 BKN
11:50 26.8 °C 21.6 °C 1010.7 hPa Calm     73 % 0 mm WeatherDisplay:10.37 W/m2 BKN
11:55 26.7 °C 21.9 °C 1010.7 hPa Calm     75 % 0 mm WeatherDisplay:10.37 W/m2 BKN
12:00 26.6 °C 22.2 °C 1010.4 hPa Calm     77 % 0 mm WeatherDisplay:10.37 W/m2 BKN
12:05 26.4 °C 22.1 °C 1010.4 hPa Calm     77 % 0 mm WeatherDisplay:10.37 W/m2 BKN
12:10 26.3 °C 21.7 °C 1010.4 hPa Calm     76 % 0 mm WeatherDisplay:10.37 W/m2 BKN
12:15 26.2 °C 22.1 °C 1010.4 hPa Calm     78 % 0 mm WeatherDisplay:10.37 W/m2 BKN
12:20 26.2 °C 22 °C 1010.4 hPa Calm     78 % 0 mm WeatherDisplay:10.37 W/m2 BKN
12:25 26.1 °C 22.2 °C 1010.4 hPa Calm     79 % 0 mm WeatherDisplay:10.37 W/m2 BKN
12:30 26.1 °C 22.2 °C 1010 hPa Calm     79 % 0 mm WeatherDisplay:10.37 W/m2 BKN
12:35 26.1 °C 22.1 °C 1010.4 hPa Calm     79 % 0 mm WeatherDisplay:10.37 W/m2 BKN
12:40 26 °C 22.1 °C 1010.4 hPa Calm     79 % 0 mm WeatherDisplay:10.37 W/m2 BKN
12:45 25.9 °C 22 °C 1010.4 hPa Calm   6.4 km/h 79 % 0 mm WeatherDisplay:10.37 W/m2 OVC
12:50 25.6 °C 20.8 °C 1010.4 hPa Calm   19.3 km/h 75 % 0 mm WeatherDisplay:10.37 W/m2 OVC
12:55 25.1 °C 19.7 °C 1010.4 hPa SW 1.6 km/h 8 km/h 72 % 0 mm WeatherDisplay:10.37 W/m2 OVC
13:00 24.6 °C 19.7 °C 1010.4 hPa Calm   4.8 km/h 74 % 0 mm WeatherDisplay:10.37 W/m2 OVC
13:05 24.4 °C 19.7 °C 1010.7 hPa Calm     75 % 0 mm WeatherDisplay:10.37 W/m2 OVC
13:10 24.3 °C 19.3 °C 1010.4 hPa Calm   4.8 km/h 74 % 0 mm WeatherDisplay:10.37 W/m2 OVC
13:15 24.3 °C 19.3 °C 1010.7 hPa Calm   3.2 km/h 74 % 0 mm WeatherDisplay:10.37 W/m2 OVC
13:20 24.3 °C 19.3 °C 1010 hPa Calm   4.8 km/h 74 % 0 mm WeatherDisplay:10.37 W/m2 BKN
13:25 24.2 °C 19.5 °C 1010 hPa Calm     75 % 0 mm WeatherDisplay:10.37 W/m2 BKN
13:30 24.2 °C 19.9 °C 1010 hPa Calm     77 % 0 mm WeatherDisplay:10.37 W/m2 BKN
13:35 24.2 °C 19.4 °C 1010 hPa Calm     75 % 0 mm WeatherDisplay:10.37 W/m2 BKN
13:40 24.2 °C 19.7 °C 1010 hPa Calm     76 % 0 mm WeatherDisplay:10.37 W/m2 OVC
13:45 24.2 °C 19.8 °C 1010 hPa Calm     77 % 0 mm WeatherDisplay:10.37 W/m2 OVC
13:50 24.2 °C 20.1 °C 1010.4 hPa Calm     78 % 0 mm WeatherDisplay:10.37 W/m2 OVC
13:55 24 °C 19.1 °C 1010.4 hPa Calm   1.6 km/h 74 % 0 mm WeatherDisplay:10.37 W/m2 OVC
14:00 23.9 °C 19.4 °C 1010.7 hPa Calm     76 % 0 mm WeatherDisplay:10.37 W/m2 OVC
14:05 23.8 °C 19.3 °C 1010.4 hPa Calm     76 % 0 mm WeatherDisplay:10.37 W/m2 OVC
14:10 23.7 °C 19.3 °C 1010.4 hPa Calm     76 % 0 mm WeatherDisplay:10.37 W/m2 OVC
14:15 23.7 °C 19.4 °C 1010 hPa Calm     77 % 0 mm WeatherDisplay:10.37 W/m2 OVC
14:20 23.7 °C 19.4 °C 1010.4 hPa Calm     77 % 0 mm WeatherDisplay:10.37 W/m2 BKN
14:25 23.7 °C 19.7 °C 1010.4 hPa Calm   1.6 km/h 78 % 0 mm WeatherDisplay:10.37 W/m2 BKN
14:30 23.7 °C 19.7 °C 1010.4 hPa Calm   3.2 km/h 78 % 0 mm WeatherDisplay:10.37 W/m2 BKN
14:35 23.7 °C 19.9 °C 1010.4 hPa Calm   4.8 km/h 79 % 0 mm WeatherDisplay:10.37 W/m2 BKN
14:40 23.7 °C 20.1 °C 1010 hPa Calm   1.6 km/h 80 % 0 mm WeatherDisplay:10.37 W/m2 BKN
14:45 23.8 °C 20.1 °C 1010 hPa Calm   1.6 km/h 80 % 0 mm WeatherDisplay:10.37 W/m2 BKN
14:50 23.8 °C 20.3 °C 1010 hPa Calm   3.2 km/h 81 % 0 mm WeatherDisplay:10.37 W/m2 BKN
14:55 23.8 °C 20.6 °C 1009.7 hPa Calm   3.2 km/h 82 % 0 mm WeatherDisplay:10.37 W/m2 BKN
15:00 23.9 °C 20.4 °C 1009.7 hPa Calm   1.6 km/h 81 % 0 mm WeatherDisplay:10.37 W/m2 BKN
15:05 24 °C 20.6 °C 1009.7 hPa Calm   4.8 km/h 81 % 0 mm WeatherDisplay:10.37 W/m2 BKN
15:10 24.2 °C 20.9 °C 1009.4 hPa WNW 1.6 km/h 4.8 km/h 82 % 0 mm WeatherDisplay:10.37 W/m2 BKN
15:15 24.4 °C 21.2 °C 1009.7 hPa Calm   6.4 km/h 82 % 0 mm WeatherDisplay:10.37 W/m2 BKN
15:20 24.7 °C 21.2 °C 1009.7 hPa West 1.6 km/h 16.1 km/h 81 % 0 mm WeatherDisplay:10.37 W/m2 BKN
15:25 24.9 °C 20.7 °C 1009.7 hPa WNW 1.6 km/h 12.9 km/h 77 % 0 mm WeatherDisplay:10.37 W/m2 BKN
15:30 25.3 °C 21.4 °C 1009.7 hPa WNW 1.6 km/h 12.9 km/h 79 % 0 mm WeatherDisplay:10.37 W/m2 BKN
15:35 25.7 °C 21.6 °C 1009.4 hPa WNW 1.6 km/h 12.9 km/h 78 % 0 mm WeatherDisplay:10.37 W/m2 BKN
15:40 26.1 °C 21.5 °C 1009.4 hPa WNW 3.2 km/h 16.1 km/h 76 % 0 mm WeatherDisplay:10.37 W/m2 BKN
15:45 26.3 °C 21.1 °C 1009.4 hPa Calm   16.1 km/h 73 % 0 mm WeatherDisplay:10.37 W/m2 BKN
15:50 26.6 °C 21.6 °C 1009.4 hPa Calm   11.3 km/h 74 % 0 mm WeatherDisplay:10.37 W/m2 BKN
15:55 26.7 °C 20.1 °C 1009.4 hPa WSW 4.8 km/h 20.9 km/h 67 % 0 mm WeatherDisplay:10.37 W/m2 BKN
16:00 26.6 °C 19.7 °C 1009.4 hPa West 3.2 km/h 19.3 km/h 66 % 0 mm WeatherDisplay:10.37 W/m2 BKN
16:05 26.6 °C 19.9 °C 1009.4 hPa Calm   16.1 km/h 67 % 0 mm WeatherDisplay:10.37 W/m2 BKN
16:10 26.5 °C 19.7 °C 1009.4 hPa West 1.6 km/h 14.5 km/h 66 % 0 mm WeatherDisplay:10.37 W/m2 BKN
16:15 26.5 °C 20.3 °C 1009 hPa Calm   6.4 km/h 69 % 0 mm WeatherDisplay:10.37 W/m2 BKN
16:20 26.4 °C 20.2 °C 1009 hPa WNW 1.6 km/h 6.4 km/h 69 % 0 mm WeatherDisplay:10.37 W/m2 BKN
16:25 26.3 °C 20.4 °C 1009 hPa Calm   3.2 km/h 70 % 0 mm WeatherDisplay:10.37 W/m2 BKN
16:30 26.3 °C 20.1 °C 1009 hPa Calm   4.8 km/h 69 % 0 mm WeatherDisplay:10.37 W/m2 BKN
16:35 26.3 °C 20.1 °C 1009 hPa West 1.6 km/h 11.3 km/h 69 % 0 mm WeatherDisplay:10.37 W/m2 BKN
16:40 26.2 °C 20.3 °C 1009 hPa West 1.6 km/h 11.3 km/h 70 % 0 mm WeatherDisplay:10.37 W/m2 BKN
16:45 26.2 °C 20.3 °C 1009 hPa Calm   4.8 km/h 70 % 0 mm WeatherDisplay:10.37 W/m2 BKN
16:55 25.9 °C 19.8 °C 1009 hPa Calm   3.2 km/h 69 % 0 mm WeatherDisplay:10.37 W/m2 BKN
17:00 25.8 °C 19.4 °C 1009 hPa Calm   3.2 km/h 68 % 0 mm WeatherDisplay:10.37 W/m2 BKN
17:10 25.7 °C 19.1 °C 1009 hPa Calm   11.3 km/h 67 % 0 mm WeatherDisplay:10.37 W/m2 BKN
17:15 25.7 °C 19.3 °C 1009 hPa Calm   1.6 km/h 68 % 0 mm WeatherDisplay:10.37 W/m2 BKN
17:20 25.7 °C 19.6 °C 1008.7 hPa Calm     69 % 0 mm WeatherDisplay:10.37 W/m2 BKN
17:25 25.7 °C 19.3 °C 1008.7 hPa Calm   6.4 km/h 68 % 0 mm WeatherDisplay:10.37 W/m2 SCT
17:30 25.7 °C 19.6 °C 1008.7 hPa Calm   8 km/h 69 % 0 mm WeatherDisplay:10.37 W/m2 SCT
17:35 25.7 °C 19.6 °C 1008.7 hPa Calm   9.7 km/h 69 % 0 mm WeatherDisplay:10.37 W/m2 SCT
17:40 25.7 °C 19.4 °C 1008.4 hPa Calm   6.4 km/h 68 % 0 mm WeatherDisplay:10.37 W/m2 SCT
17:45 25.8 °C 19.2 °C 1008.4 hPa Calm   3.2 km/h 67 % 0 mm WeatherDisplay:10.37 W/m2 SCT
17:50 25.8 °C 19.4 °C 1008.4 hPa Calm   4.8 km/h 68 % 0 mm WeatherDisplay:10.37 W/m2 SCT
17:55 25.9 °C 19.8 °C 1008.4 hPa WNW 1.6 km/h 6.4 km/h 69 % 0 mm WeatherDisplay:10.37 W/m2 SCT
18:00 25.9 °C 19.3 °C 1008.4 hPa Calm   8 km/h 67 % 0 mm WeatherDisplay:10.37 W/m2 SCT
18:05 26.1 °C 19.2 °C 1008.4 hPa WNW 1.6 km/h 8 km/h 66 % 0 mm WeatherDisplay:10.37 W/m2 SCT
18:10 26.1 °C 19.4 °C 1008 hPa Calm   4.8 km/h 67 % 0 mm WeatherDisplay:10.37 W/m2 SCT
18:15 26 °C 19.6 °C 1008 hPa Calm     68 % 0 mm WeatherDisplay:10.37 W/m2 FEW
18:20 25.9 °C 19.8 °C 1008 hPa Calm   4.8 km/h 69 % 0 mm WeatherDisplay:10.37 W/m2 FEW
18:25 25.9 °C 19.8 °C 1008 hPa NW 3.2 km/h 11.3 km/h 69 % 0 mm WeatherDisplay:10.37 W/m2 FEW
Juneau County Weather
Compliments of Weather Underground - 2.5 mb